Location: ??????
(38.0131°N, 23.7723°E)
Time: 02:16:50
(UTC+00:00)

USA 267 - Pass Details

Date: 17 October 2021
Orbit: 1101 x 1107 km, 123.0° (Epoch: 27 November)

Event Time Altitude Azimuth Distance (km) Brightness Sun altitude
Rises 15:56:38 0° 137° (SE) 3,904 5.8 -3.2°
Reaches altitude 10° 15:59:06 10° 138° (SE) 2,949 5.2 -3.7°
Maximum altitude 16:05:38 81° 225° (SW) 1,117 3.5 -4.9°
Drops below altitude 10° 16:12:11 10° 313° (NW) 2,960 6.1 -6.2°
Sets 16:14:40 0° 315° (NW) 3,921 6.8 -6.7°
